MDG738 FMMI-FMMI

Flight info

Callsign MDG738
Flight time 0h 19m
Altitude 7000
Route TP
Aircraft B738/M-SDE2E3FGHIRWXY/LB1

Departure

Time 2026-04-19 07:58
Airport Ivato International Airport (FMMI)

Arrival

Time 2026-04-19 08:17
Airport Ivato International Airport (FMMI)
Time Latitude Longitude Altitude Speed Heading
2026-04-19 07:46 -18.79871 47.47717 4206 ft 0 kts 277°
2026-04-19 07:52 -18.79870 47.47709 4206 ft 7 kts 277°
2026-04-19 07:53 -18.79843 47.47628 4206 ft 13 kts 316°
2026-04-19 07:53 -18.79769 47.47588 4206 ft 12 kts
2026-04-19 07:53 -18.79686 47.47597 4206 ft 12 kts 359°
2026-04-19 07:53 -18.79643 47.47538 4206 ft 11 kts 270°
2026-04-19 07:54 -18.79637 47.47456 4206 ft 11 kts 276°
2026-04-19 07:54 -18.79618 47.47371 4206 ft 16 kts 283°
2026-04-19 07:54 -18.79595 47.47227 4206 ft 24 kts 278°
2026-04-19 07:54 -18.79565 47.47018 4206 ft 33 kts 278°
2026-04-19 07:55 -18.79537 47.46829 4206 ft 17 kts 279°
2026-04-19 07:55 -18.79521 47.46723 4206 ft 25 kts 279°
2026-04-19 07:56 -18.79507 47.46625 4206 ft 22 kts 279°
2026-04-19 07:56 -18.79467 47.46503 4206 ft 18 kts 317°
2026-04-19 07:56 -18.79460 47.46464 4206 ft 7 kts 174°
2026-04-19 07:56 -18.79494 47.46537 4206 ft 20 kts 95°
2026-04-19 07:57 -18.79536 47.46819 4206 ft 64 kts 99°
2026-04-19 07:57 -18.79629 47.47447 4207 ft 108 kts 99°
2026-04-19 07:57 -18.79768 47.48366 4208 ft 144 kts 99°
2026-04-19 07:57 -18.79933 47.49439 4501 ft 148 kts 99°
2026-04-19 07:58 -18.80098 47.50515 4903 ft 153 kts 99°
2026-04-19 07:58 -18.80292 47.51650 5267 ft 162 kts 101°
2026-04-19 07:58 -18.80361 47.52891 5436 ft 179 kts 83°
2026-04-19 07:58 -18.79860 47.54101 5617 ft 187 kts 54°
2026-04-19 07:59 -18.78800 47.54978 5659 ft 205 kts 28°
2026-04-19 07:59 -18.77411 47.55401 5913 ft 210 kts 10°
2026-04-19 07:59 -18.75921 47.55299 6067 ft 223 kts 347°
2026-04-19 07:59 -18.74486 47.54527 6105 ft 241 kts 325°
2026-04-19 08:00 -18.73368 47.53257 6135 ft 241 kts 302°
2026-04-19 08:00 -18.72792 47.51611 6215 ft 238 kts 283°
2026-04-19 08:00 -18.72489 47.49889 6187 ft 241 kts 280°
2026-04-19 08:00 -18.72230 47.48153 6243 ft 235 kts 278°
2026-04-19 08:01 -18.72037 47.46474 6281 ft 230 kts 277°
2026-04-19 08:01 -18.71857 47.44812 6055 ft 227 kts 276°
2026-04-19 08:01 -18.71682 47.43247 6199 ft 203 kts 278°
2026-04-19 08:01 -18.71714 47.41799 6144 ft 193 kts 254°
2026-04-19 08:02 -18.72407 47.40673 5937 ft 183 kts 217°
2026-04-19 08:02 -18.73556 47.40135 5685 ft 183 kts 194°
2026-04-19 08:02 -18.74806 47.39846 5534 ft 180 kts 189°
2026-04-19 08:02 -18.76022 47.39594 5341 ft 181 kts 187°
2026-04-19 08:03 -18.77220 47.39601 5262 ft 162 kts 157°
2026-04-19 08:03 -18.77975 47.40396 5034 ft 157 kts 118°
2026-04-19 08:03 -18.78415 47.41427 4918 ft 150 kts 112°
2026-04-19 08:03 -18.78786 47.42441 4766 ft 147 kts 108°
2026-04-19 08:04 -18.79032 47.43488 4610 ft 146 kts 101°
2026-04-19 08:04 -18.79196 47.44551 4449 ft 148 kts 99°
2026-04-19 08:04 -18.79355 47.45615 4319 ft 150 kts 98°
2026-04-19 08:04 -18.79517 47.46715 4218 ft 148 kts 99°
2026-04-19 08:05 -18.79673 47.47750 4207 ft 160 kts 99°
2026-04-19 08:05 -18.79865 47.49069 4855 ft 181 kts 98°
2026-04-19 08:05 -18.79962 47.49849 5361 ft 174 kts 98°
2026-04-19 08:05 -18.80100 47.50917 5577 ft 175 kts 98°
2026-04-19 08:06 -18.80136 47.51303 5658 ft 175 kts 94°
2026-04-19 08:10 -18.80061 47.52562 5840 ft 182 kts 77°
2026-04-19 08:10 -18.79427 47.53762 5913 ft 196 kts 50°
2026-04-19 08:10 -18.78332 47.54659 6132 ft 202 kts 30°
2026-04-19 08:11 -18.76975 47.55098 6299 ft 211 kts 11°
2026-04-19 08:11 -18.75469 47.55230 6227 ft 226 kts
2026-04-19 08:11 -18.73895 47.55047 6093 ft 229 kts 343°
2026-04-19 08:11 -18.72578 47.54180 6155 ft 223 kts 318°
2026-04-19 08:12 -18.71725 47.52838 6112 ft 222 kts 292°
2026-04-19 08:12 -18.71421 47.51286 6106 ft 219 kts 276°
2026-04-19 08:12 -18.71316 47.49697 6111 ft 215 kts 275°
2026-04-19 08:12 -18.71196 47.48141 6215 ft 210 kts 276°
2026-04-19 08:13 -18.71024 47.46595 6257 ft 215 kts 278°
2026-04-19 08:13 -18.70805 47.45019 6336 ft 217 kts 279°
2026-04-19 08:13 -18.70635 47.43470 6519 ft 211 kts 269°
2026-04-19 08:13 -18.70991 47.41944 6313 ft 220 kts 243°
2026-04-19 08:14 -18.71955 47.40752 6115 ft 213 kts 215°
2026-04-19 08:14 -18.74552 47.39904 5983 ft 188 kts 181°
2026-04-19 08:14 -18.75858 47.39837 5826 ft 187 kts 181°
2026-04-19 08:15 -18.77172 47.39751 5651 ft 192 kts 181°
2026-04-19 08:15 -18.78407 47.39942 5413 ft 173 kts 152°
2026-04-19 08:15 -18.79173 47.40821 5053 ft 162 kts 109°
2026-04-19 08:15 -18.79186 47.41966 4807 ft 154 kts 85°
2026-04-19 08:16 -18.79079 47.43090 4643 ft 150 kts 90°
2026-04-19 08:16 -18.79163 47.44155 4514 ft 146 kts 97°
2026-04-19 08:16 -18.79290 47.45211 4370 ft 144 kts 98°
2026-04-19 08:16 -18.79445 47.46242 4262 ft 141 kts 99°
2026-04-19 08:17 -18.79597 47.47231 4207 ft 125 kts 99°
2026-04-19 08:17 -18.79695 47.47882 4206 ft 51 kts 95°
2026-04-19 08:17 -18.79735 47.48112 4206 ft 10 kts 134°
2026-04-19 08:17 -18.79810 47.48108 4206 ft 13 kts 188°
2026-04-19 08:18 -18.79871 47.48097 4206 ft 7 kts 195°
2026-04-19 08:18 -18.79903 47.48069 4206 ft 6 kts 257°
2026-04-19 08:18 -18.79901 47.48015 4206 ft 12 kts 278°
2026-04-19 08:18 -18.79885 47.47906 4206 ft 13 kts 279°
2026-04-19 08:19 -18.79883 47.47836 4206 ft 11 kts 269°
2026-04-19 08:19 -18.79875 47.47740 4206 ft 9 kts 278°
2026-04-19 08:19 -18.79870 47.47702 4206 ft 0 kts 278°